Salem, OR

7:31 AM PST on January 22, 2017 (GMT -0800)
McNary

Weather History for KSLE - November, 2010

Change the Weather History Date:

Monday, November 29, 2010

  Actual Average Record
Temperature  
Mean Temperature 38 °F 42 °F  
Max Temperature 46 °F 49 °F 62 °F (1917)
Min Temperature 29 °F 36 °F 12 °F (1896)
Degree Days  
Heating Degree Days 27 23  
Month to date heating degree days 563 561  
Since 1 July heating degree days 1029 1093  
Cooling Degree Days 0 0  
Month to date cooling degree days 0 0  
Year to date cooling degree days 291 290  
Moisture  
Dew Point 33 °F    
Average Humidity 88    
Maximum Humidity 100    
Minimum Humidity 76    
Precipitation  
Precipitation 0.04 in 0.25 in 3.00 in (1893)
Month to date precipitation 5.22 6.24  
Year to date precipitation 38.27 32.55  
Snow  
Snow 0.00 in - - ()
Month to date snowfall 0.0  
Snow Depth 0.00 in    
Sea Level Pressure  
Sea Level Pressure 30.34 in    
Wind  
Wind Speed 5 mph (SSE)    
Max Wind Speed 22 mph    
Max Gust Speed 29 mph    
Visibility 6 miles    
Events Fog , Rain    
T = Trace of Precipitation, MM = Missing Value Source: NWS Daily Summary

Daily Weather History Graph

Daily Weather History Graph

Search for Another Location

Airport or City:

Trip Planner

Search our weather history database for the weather conditions in past years. The results will help you decide how hot, cold, wet, or windy it might be!

Date:

Astronomy

Nov. 29, 2010 Rise Set
Actual Time 7:27 AM PST 4:33 PM PST
Civil Twilight 6:54 AM PST 5:05 PM PST
Nautical Twilight 6:18 AM PST 5:42 PM PST
Astronomical Twilight 5:42 AM PST 6:17 PM PST
Moon 12:24 AM PST (11/29) 12:50 PM PST (11/29)
Length of Visible Light 10h 11m
Length of Day
9h 05m
Last Quarter, 39% of the Moon is Illuminated
Nov 29
Last Quarter
Dec 5
New
Dec 13
First Quarter
Dec 21
Full
Dec 27
Last Quarter

Hourly Weather History & Observations

Time (PST) Temp. Windchill Dew Point Humidity Pressure Visibility Wind Dir Wind Speed Gust Speed Precip Events Conditions
12:56 AM 37.0 °F 32.4 °F 35.1 °F 93% 30.32 in 10.0 mi SE 5.8 mph - N/A   Clear
1:56 AM 35.1 °F 31.0 °F 33.1 °F 92% 30.33 in 10.0 mi SSE 4.6 mph - N/A   Mostly Cloudy
2:56 AM 36.0 °F 33.3 °F 34.0 °F 93% 30.35 in 8.0 mi South 3.5 mph - N/A   Clear
3:12 AM 33.8 °F - 33.8 °F 100% 30.35 in 1.8 mi Calm Calm - N/A   Clear
3:22 AM 33.8 °F - 32.0 °F 93% 30.35 in 3.0 mi Calm Calm - N/A   Clear
3:29 AM 32.0 °F - 30.2 °F 93% 30.34 in 1.5 mi Calm Calm - N/A   Clear
3:33 AM 32.0 °F - 30.2 °F 93% 30.34 in 0.8 mi Calm Calm - N/A   Clear
3:51 AM 32.0 °F - 30.2 °F 93% 30.34 in 1.5 mi Calm Calm - N/A   Clear
3:56 AM 30.9 °F - 30.9 °F 100% 30.35 in 1.5 mi Calm Calm - N/A   Clear
4:09 AM 30.2 °F - 30.2 °F 100% 30.35 in 0.8 mi Calm Calm - N/A   Clear
4:23 AM 30.2 °F - 30.2 °F 100% 30.35 in 1.0 mi Calm Calm - N/A   Clear
4:33 AM 30.2 °F - 30.2 °F 100% 30.35 in 2.5 mi Calm Calm - N/A   Clear
4:40 AM 30.2 °F 26.7 °F 30.2 °F 100% 30.35 in 9.0 mi South 3.5 mph - N/A   Clear
4:56 AM 32.0 °F - 30.9 °F 96% 30.37 in 10.0 mi Calm Calm - N/A   Clear
5:36 AM 30.2 °F - 30.2 °F 100% 30.36 in 1.8 mi Calm Calm - N/A   Clear
5:41 AM 30.2 °F 26.7 °F 28.4 °F 93% 30.36 in 3.0 mi SSW 3.5 mph - N/A   Clear
5:47 AM 30.2 °F - 28.4 °F 93% 30.36 in 1.8 mi Calm Calm - N/A   Clear
5:56 AM 30.9 °F - 28.9 °F 92% 30.37 in 1.8 mi Calm Calm - N/A   Clear
5:58 AM 32.0 °F - 30.2 °F 93% 30.36 in 3.0 mi Calm Calm - N/A   Clear
6:14 AM 30.2 °F - 28.4 °F 93% 30.36 in 1.5 mi Calm Calm - N/A   Clear
6:16 AM 30.2 °F - 28.4 °F 93% 30.36 in 0.8 mi Calm Calm - N/A   Clear
6:56 AM 30.9 °F 27.5 °F 28.9 °F 92% 30.38 in 10.0 mi SE 3.5 mph - N/A Fog Shallow Fog
7:56 AM 30.9 °F - 30.0 °F 96% 30.38 in 10.0 mi Calm Calm - N/A Fog Patches of Fog
8:56 AM 35.1 °F - 34.0 °F 96% 30.38 in 10.0 mi Calm Calm - N/A Fog Patches of Fog
9:56 AM 37.0 °F 31.6 °F 36.0 °F 96% 30.38 in 10.0 mi South 6.9 mph - N/A   Clear
10:56 AM 39.9 °F 34.5 °F 36.0 °F 86% 30.37 in 10.0 mi South 8.1 mph - N/A   Clear
11:56 AM 42.1 °F 40.2 °F 37.0 °F 82% 30.34 in 10.0 mi SSE 3.5 mph - N/A   Scattered Clouds
12:56 PM 44.1 °F 42.5 °F 37.9 °F 79% 30.32 in 10.0 mi South 3.5 mph - N/A   Clear
1:56 PM 45.0 °F - 39.0 °F 80% 30.31 in 10.0 mi Calm Calm - N/A   Clear
2:56 PM 44.1 °F 41.5 °F 37.9 °F 79% 30.32 in 10.0 mi South 4.6 mph - N/A   Mostly Cloudy
4:56 PM 43.0 °F 38.2 °F 37.9 °F 82% 30.32 in 10.0 mi SSE 8.1 mph - 0.00 in   Overcast
5:56 PM 43.0 °F 37.2 °F 37.9 °F 82% 30.32 in 10.0 mi SE 10.4 mph - 0.00 in Rain Light Rain
6:56 PM 42.1 °F 37.7 °F 39.0 °F 89% 30.31 in 10.0 mi SSE 6.9 mph - 0.00 in Rain Light Rain
7:56 PM 42.1 °F 40.2 °F 39.0 °F 89% 30.30 in 10.0 mi SE 3.5 mph - 0.02 in Rain Light Rain
8:56 PM 43.0 °F 40.3 °F 39.0 °F 86% 30.30 in 10.0 mi SSE 4.6 mph - 0.02 in Rain Light Rain
9:56 PM 45.0 °F 37.6 °F 37.9 °F 76% 30.26 in 10.0 mi SSE 17.3 mph - 0.00 in   Overcast
10:56 PM 45.0 °F 37.6 °F 37.9 °F 76% 30.25 in 10.0 mi SSE 17.3 mph 27.6 mph N/A   Overcast
11:56 PM 45.0 °F 39.3 °F 39.0 °F 80% 30.25 in 10.0 mi South 11.5 mph - 0.00 in Rain Light Rain